Вернуться в каталог

STARLINK-32193

АктивенСвязьVLEO
NORAD 60428·PAYLOAD·🇺🇸 United States

Запущен Aug 12, 2024 с Cape Canaveral Space Force Station

Loading…

Ближайшие Пролёты (ближайшие 24 часа)

TLE

СвежийSource: CelesTrak SupGP

Эпоха: Sep 14, 2026, 21:22 UTC

1 60428C 24144D   26257.89076389  .00040080  00000+0  11845-2 0  2576
2 60428  53.1595  55.7487 0001251  82.7231 249.9840 15.34360490    10

Отслеживайте STARLINK-32193 в реальном времени с AllMySat

Download on the App Store